[[{"header":{"parameterUnit":"m.s-1","parameterCategory":1,"la1":30.2991,"la2":30.254,"lo1":-89.0895,"lo2":-89.0444,"dy":0.0017,"dx":0.0017,"nx":28,"ny":28,"refTime":"2025-11-14T03:00:00:Z","depth":0,"parameterNumber":2,"parameterNumberName":"U-component_of_WINDS"},"data":[0,0,0,0,0,0,0,0,0,0,0,0,0,0,0,0,0,0,0,0,0,0,0,0,0,0,0,0,0,0,0,0,0,0,0,0,0,0,0,0,0,0,0,0,0,0,0,0,0,0,0,0,0,0,0,0,0,0,-0.2025,-0.2026,0,-0.2083,-0.2084,-0.2085,-0.2104,-0.2104,-0.2103,-0.2103,-0.2164,-0.2166,-0.2168,0,0,0,0,0,0,0,0,0,0,0,0,0,-0.1932,-0.1934,-0.2025,-0.2026,-0.2027,-0.2083,-0.2084,-0.2085,-0.2104,-0.2104,-0.2103,-0.2103,-0.2164,-0.2166,-0.2168,0,0,0,0,0,0,0,0,0,0,0,0,0,-0.198,-0.1934,-0.2025,-0.2043,-0.2045,-0.2083,-0.2084,-0.2085,-0.2104,-0.2104,-0.2103,-0.2103,-0.2163,-0.2166,-0.2168,-0.2193,0,0,-0.2177,-0.2178,0,0,0,0,0,0,0,0,-0.1977,-0.1983,-0.2039,-0.2042,-0.2044,-0.2086,-0.2074,-0.2121,-0.2104,-0.2082,-0.2103,-0.2103,-0.2139,-0.2143,-0.2155,-0.2196,-0.2199,-0.2177,-0.2179,-0.218,-0.2181,0,0,0,0,0,0,0,-0.1974,-0.1981,-0.2048,-0.204,-0.2043,-0.2049,-0.2055,-0.2083,-0.2112,-0.2084,-0.2085,-0.2092,-0.214,-0.2152,-0.2157,-0.22,-0.2177,-0.218,-0.2181,-0.2182,-0.2265,-0.2265,0,0,0,0,0,0,-0.1967,-0.1978,-0.2046,-0.205,-0.2009,-0.2051,-0.2058,-0.2073,-0.2111,-0.2117,-0.2092,-0.2092,-0.2148,-0.2154,-0.2159,-0.2191,-0.218,-0.2183,-0.2184,-0.2264,-0.2265,-0.2265,0,0,0,0,0,0,-0.1965,-0.1973,-0.2044,-0.2014,-0.2024,-0.2053,-0.207,-0.2074,-0.2087,-0.2118,-0.2123,-0.2099,-0.2148,-0.2155,-0.2185,-0.2193,-0.2184,-0.2187,-0.2264,-0.2264,-0.2265,-0.2255,0,0,0,0,0,0,-0.1962,-0.1972,-0.1982,-0.2014,-0.2025,-0.2068,-0.207,-0.2076,-0.2091,-0.2093,-0.2126,-0.2131,-0.2148,-0.218,-0.2187,-0.2197,-0.2189,-0.2263,-0.2264,-0.2265,-0.2255,-0.2255,-0.2256,0,0,0,0,0,-0.1959,-0.1977,-0.1982,-0.199,-0.2037,-0.2069,-0.2075,-0.2093,-0.2092,-0.2102,-0.2122,-0.213,-0.2191,-0.2183,-0.2191,-0.2202,-0.2263,-0.2264,-0.2265,-0.2254,-0.2255,-0.2256,0,0,0,0,0,0,-0.1945,-0.1981,-0.1988,-0.2016,-0.2039,-0.2072,-0.2085,-0.2093,-0.2118,-0.2118,-0.214,-0.2147,-0.2175,-0.2192,-0.2182,-0.2228,-0.2227,-0.223,-0.2217,-0.2218,-0.2218,-0.2214,-0.2191,0,0,0,0,0,-0.1945,-0.1966,-0.1997,-0.202,-0.2031,-0.2056,-0.207,-0.2082,-0.2107,-0.2117,-0.2139,-0.2163,-0.2188,-0.2204,-0.2228,-0.2257,-0.2265,-0.2268,-0.2269,-0.2269,-0.2272,-0.2289,-0.2291,-0.2269,-0.2269,-0.2269,0,0,-0.1945,-0.1968,-0.198,-0.2017,-0.2037,-0.2059,-0.2064,-0.2087,-0.2104,-0.2121,-0.215,-0.2167,-0.2196,-0.2225,-0.2239,-0.2239,-0.2279,-0.2271,-0.2271,-0.2273,-0.229,-0.2292,-0.2294,-0.227,-0.227,-0.227,0,0,-0.1958,-0.1977,-0.1998,-0.2017,-0.2046,-0.2062,-0.2067,-0.2098,-0.211,-0.214,-0.2153,-0.2174,-0.2215,-0.2235,-0.2251,-0.2271,-0.228,-0.2279,-0.2282,-0.2298,-0.23,-0.2301,-0.2309,-0.2311,-0.2281,-0.2281,-0.2281,0,-0.1955,-0.1989,-0.2008,-0.2031,-0.2047,-0.2062,-0.2084,-0.2101,-0.2137,-0.2148,-0.2148,-0.2201,-0.2221,-0.2256,-0.226,-0.2272,-0.2279,-0.2275,-0.2298,-0.23,-0.2301,-0.2309,-0.2312,-0.228,-0.228,-0.228,-0.228,0,-0.1984,-0.2008,-0.2021,-0.2054,-0.2072,-0.2094,-0.2117,-0.2133,-0.2143,-0.216,-0.219,-0.2215,-0.2245,-0.2254,-0.2265,-0.229,-0.229,-0.2293,-0.2293,-0.2303,-0.231,-0.2313,-0.228,-0.228,-0.228,-0.228,0,0,-0.199,-0.2033,-0.2037,-0.2053,-0.2086,-0.2105,-0.2128,-0.2156,-0.217,-0.2194,-0.2214,-0.2249,-0.2253,-0.227,-0.2284,-0.2298,-0.2313,-0.23,-0.2301,-0.2302,-0.2343,-0.234,-0.2343,-0.2319,-0.2319,-0.232,-0.234,0,-0.2007,-0.2048,-0.2065,-0.2099,-0.2121,-0.2136,-0.2156,-0.2179,-0.2195,-0.2217,-0.2235,-0.2259,-0.2262,-0.2273,-0.2288,-0.2308,-0.2321,-0.2307,-0.2338,-0.2339,-0.2331,-0.2347,-0.2344,-0.2362,-0.2343,-0.2344,-0.2344,0,-0.2032,-0.2055,-0.2091,-0.2121,-0.2131,-0.2149,-0.2177,-0.2197,-0.2223,-0.2234,-0.2254,-0.2267,-0.2292,-0.229,-0.2325,-0.2315,-0.2329,-0.2341,-0.2342,-0.2346,-0.2342,-0.2351,-0.2368,-0.2371,-0.2349,-0.2349,-0.2348,0,-0.2032,-0.2073,-0.21,-0.2112,-0.2148,-0.2161,-0.2176,-0.2202,-0.2218,-0.2243,-0.2254,-0.2281,-0.2296,-0.2317,-0.2337,-0.2334,-0.2371,-0.237,-0.2381,-0.2381,-0.2389,-0.2388,-0.2408,-0.2397,-0.2397,-0.2397,-0.2397,0,-0.205,-0.2071,-0.21,-0.2117,-0.2141,-0.2161,-0.2185,-0.2202,-0.2225,-0.2245,-0.226,-0.2279,-0.2304,-0.2326,-0.2342,-0.2369,-0.2376,-0.2386,-0.239,-0.2385,-0.2384,-0.2394,-0.2394,-0.2398,-0.2398,-0.2398,-0.2398,0,-0.2054,-0.2075,-0.2105,-0.2137,-0.2145,-0.2162,-0.2189,-0.2206,-0.2223,-0.2248,-0.2256,-0.2282,-0.2309,-0.2331,-0.2367,-0.2377,-0.2406,-0.241,-0.2397,-0.2399,-0.2409,-0.2408,-0.2437,-0.2442,-0.2428,-0.2428,-0.2428,0,-0.2064,-0.2081,-0.2114,-0.2128,-0.2144,-0.2167,-0.2183,-0.2204,-0.2221,-0.2252,-0.2265,-0.2293,-0.2317,-0.2359,-0.2382,-0.241,-0.2415,-0.2423,-0.2419,-0.2413,-0.2415,-0.2414,-0.2416,-0.2424,-0.2424,-0.2424,-0.2424,0,-0.2079,-0.2089,-0.2111,-0.2138,-0.2157,-0.2179,-0.2202,-0.2213,-0.2238,-0.2256,-0.2284,-0.2302,-0.2338,-0.2366,-0.2395,-0.2412,-0.2423,-0.2425,-0.2429,-0.2424,-0.2416,-0.2421,-0.2398,-0.2424,-0.2424,-0.2424,-0.2424,-0.2424,-0.2087,-0.2102,-0.2128,-0.2153,-0.2172,-0.2193,-0.221,-0.2229,-0.2253,-0.2283,-0.2294,-0.2323,-0.2349,-0.239,-0.2407,-0.243,-0.2431,-0.2437,-0.2438,-0.2439,-0.2439,-0.2412,-0.2435,-0.2435,-0.2435,-0.2435,-0.2435,0,-0.2103,-0.212,-0.2143,-0.2174,-0.2194,-0.2201,-0.2227,-0.2243,-0.2268,-0.2291,-0.2314,-0.2346,-0.2373,-0.2398,-0.2426,-0.2439,-0.2445,-0.2446,-0.2446,-0.2449,-0.2436,-0.243,-0.2441,-0.2441,-0.2441,-0.2441,-0.2441,-0.2441,-0.2114,-0.214,-0.2153,-0.2189,-0.2207,-0.2234,-0.2248,-0.2268,-0.2286,-0.2321,-0.2343,-0.2359,-0.2384,-0.2414,-0.2439,-0.2446,-0.2456,-0.2456,-0.2464,-0.2451,-0.245,-0.2449,-0.2444,-0.2458,-0.2458,-0.2475,-0.2476,-0.2476]},{"header":{"parameterUnit":"m.s-1","parameterCategory":1,"la1":30.2991,"la2":30.254,"lo1":-89.0895,"lo2":-89.0444,"dy":0.0017,"dx":0.0017,"nx":28,"ny":28,"refTime":"2025-11-14T03:00:00:Z","depth":0,"parameterNumber":3,"parameterNumberName":"V-component_of_WINDS"},"data":[0,0,0,0,0,0,0,0,0,0,0,0,0,0,0,0,0,0,0,0,0,0,0,0,0,0,0,0,0,0,0,0,0,0,0,0,0,0,0,0,0,0,0,0,0,0,0,0,0,0,0,0,0,0,0,0,0,0,-1.3107,-1.3108,0,-1.3198,-1.3199,-1.3201,-1.3202,-1.3201,-1.3199,-1.3198,-1.3295,-1.3298,-1.3302,0,0,0,0,0,0,0,0,0,0,0,0,0,-1.2937,-1.294,-1.3107,-1.3108,-1.3109,-1.3198,-1.32,-1.3201,-1.3202,-1.3201,-1.3199,-1.3198,-1.3293,-1.3298,-1.3302,0,0,0,0,0,0,0,0,0,0,0,0,0,-1.3018,-1.2941,-1.3107,-1.3121,-1.3123,-1.3198,-1.32,-1.3201,-1.3202,-1.32,-1.3199,-1.3197,-1.3292,-1.3297,-1.3303,-1.3371,0,0,-1.332,-1.3322,0,0,0,0,0,0,0,0,-1.3014,-1.3024,-1.3117,-1.312,-1.3122,-1.3187,-1.3175,-1.3258,-1.3203,-1.3172,-1.3198,-1.3196,-1.326,-1.3268,-1.3289,-1.3376,-1.338,-1.332,-1.3323,-1.3326,-1.3327,0,0,0,0,0,0,0,-1.3008,-1.3021,-1.3143,-1.3119,-1.3122,-1.3123,-1.3133,-1.3191,-1.3225,-1.3175,-1.3175,-1.3186,-1.3261,-1.3284,-1.3292,-1.3382,-1.332,-1.3325,-1.3328,-1.333,-1.3531,-1.3533,0,0,0,0,0,0,-1.2999,-1.3016,-1.314,-1.3146,-1.3062,-1.3128,-1.3139,-1.3168,-1.3224,-1.3231,-1.3187,-1.3185,-1.3276,-1.3285,-1.3295,-1.3381,-1.3326,-1.3331,-1.3334,-1.3529,-1.3532,-1.3534,0,0,0,0,0,0,-1.2995,-1.301,-1.3137,-1.3081,-1.3097,-1.3133,-1.3166,-1.3171,-1.3193,-1.3234,-1.324,-1.3204,-1.3275,-1.3287,-1.3353,-1.3385,-1.3333,-1.3338,-1.3527,-1.353,-1.3533,-1.3553,0,0,0,0,0,0,-1.2991,-1.3009,-1.3034,-1.3082,-1.31,-1.3192,-1.3168,-1.3174,-1.3202,-1.3201,-1.3251,-1.3258,-1.3274,-1.3345,-1.3358,-1.3391,-1.3342,-1.3524,-1.3528,-1.3532,-1.3549,-1.3556,-1.3562,0,0,0,0,0,-1.2985,-1.3037,-1.3036,-1.3051,-1.3133,-1.3194,-1.3205,-1.3222,-1.3205,-1.3232,-1.3258,-1.3256,-1.3378,-1.3351,-1.3367,-1.3402,-1.3522,-1.3527,-1.3532,-1.3547,-1.3555,-1.3562,0,0,0,0,0,0,-1.2993,-1.3043,-1.3043,-1.3111,-1.3148,-1.3194,-1.3228,-1.3229,-1.3273,-1.327,-1.329,-1.3301,-1.3367,-1.339,-1.336,-1.3472,-1.3449,-1.3456,-1.3455,-1.3463,-1.3469,-1.3463,-1.3347,0,0,0,0,0,-1.3003,-1.3047,-1.3088,-1.3145,-1.3163,-1.3193,-1.322,-1.323,-1.3269,-1.3285,-1.3316,-1.3355,-1.3403,-1.3434,-1.3479,-1.3552,-1.3564,-1.3584,-1.359,-1.3595,-1.3602,-1.3645,-1.3655,-1.3549,-1.3549,-1.3549,0,0,-1.3024,-1.3056,-1.3083,-1.3148,-1.3177,-1.3225,-1.3206,-1.3256,-1.3291,-1.3293,-1.3357,-1.3381,-1.3426,-1.3496,-1.3529,-1.3518,-1.3634,-1.3601,-1.3604,-1.3609,-1.3651,-1.3661,-1.367,-1.3552,-1.3552,-1.3551,0,0,-1.3086,-1.3114,-1.3166,-1.3196,-1.3241,-1.326,-1.3272,-1.3318,-1.3334,-1.3398,-1.3401,-1.3444,-1.3524,-1.3557,-1.3585,-1.366,-1.3661,-1.3674,-1.3708,-1.3749,-1.3757,-1.3765,-1.3794,-1.3804,-1.3681,-1.3681,-1.3681,0,-1.3107,-1.3177,-1.3192,-1.3243,-1.3272,-1.3274,-1.3328,-1.3357,-1.3415,-1.3436,-1.3422,-1.3525,-1.3555,-1.3634,-1.3653,-1.3674,-1.369,-1.367,-1.3755,-1.3762,-1.377,-1.3798,-1.3809,-1.3683,-1.3683,-1.3682,-1.3682,0,-1.3201,-1.3249,-1.3286,-1.3341,-1.3374,-1.3426,-1.3451,-1.3482,-1.3489,-1.351,-1.3577,-1.3613,-1.3668,-1.3687,-1.3694,-1.3767,-1.3759,-1.375,-1.3727,-1.3781,-1.3808,-1.3819,-1.3685,-1.3684,-1.3684,-1.3683,0,0,-1.3273,-1.3336,-1.335,-1.3376,-1.3426,-1.3464,-1.3517,-1.3569,-1.3597,-1.3637,-1.3683,-1.3751,-1.3743,-1.3774,-1.3785,-1.3821,-1.3882,-1.3808,-1.3809,-1.3822,-1.3967,-1.3976,-1.3988,-1.3882,-1.3884,-1.3885,-1.3964,0,-1.3343,-1.3435,-1.3451,-1.3532,-1.3578,-1.3582,-1.3628,-1.3664,-1.3685,-1.3728,-1.3752,-1.3801,-1.3785,-1.3804,-1.384,-1.3867,-1.3912,-1.3861,-1.3927,-1.3929,-1.3918,-1.4002,-1.4011,-1.4084,-1.3975,-1.3977,-1.3978,0,-1.3437,-1.3479,-1.3565,-1.361,-1.363,-1.3671,-1.3721,-1.3762,-1.3804,-1.3817,-1.3851,-1.3859,-1.3915,-1.3888,-1.3966,-1.3932,-1.3959,-1.3977,-1.398,-1.3989,-1.3958,-1.4015,-1.4107,-1.4119,-1.3994,-1.3993,-1.3992,0,-1.3484,-1.3562,-1.3624,-1.3646,-1.3699,-1.3729,-1.3753,-1.3793,-1.3824,-1.3867,-1.3888,-1.3938,-1.3966,-1.4005,-1.4026,-1.4004,-1.4105,-1.4078,-1.4119,-1.4118,-1.4142,-1.4141,-1.4242,-1.4155,-1.4155,-1.4155,-1.4155,0,-1.3561,-1.3615,-1.3646,-1.3684,-1.3745,-1.3762,-1.3822,-1.3845,-1.3881,-1.3926,-1.3931,-1.3973,-1.3997,-1.4042,-1.4059,-1.4123,-1.4135,-1.4149,-1.4153,-1.415,-1.4149,-1.417,-1.4167,-1.4158,-1.4157,-1.4156,-1.4156,0,-1.3625,-1.3647,-1.3716,-1.3761,-1.3774,-1.3816,-1.3856,-1.3894,-1.3915,-1.3971,-1.3985,-1.4018,-1.4072,-1.4096,-1.4163,-1.4174,-1.4249,-1.4248,-1.4235,-1.4237,-1.4277,-1.4274,-1.4398,-1.4416,-1.4314,-1.4315,-1.4316,0,-1.3674,-1.3715,-1.3765,-1.3795,-1.3819,-1.3867,-1.3898,-1.3918,-1.3951,-1.4002,-1.4035,-1.4089,-1.4134,-1.422,-1.4251,-1.4302,-1.4305,-1.4345,-1.4313,-1.4309,-1.4309,-1.4307,-1.4313,-1.4351,-1.4352,-1.4353,-1.4354,0,-1.3761,-1.377,-1.3815,-1.3864,-1.3901,-1.3941,-1.398,-1.4005,-1.403,-1.4067,-1.4122,-1.4157,-1.4225,-1.428,-1.4333,-1.4359,-1.4362,-1.4363,-1.4376,-1.4374,-1.4366,-1.4374,-1.4253,-1.4361,-1.436,-1.436,-1.4359,-1.4359,-1.3821,-1.3858,-1.3899,-1.3949,-1.398,-1.4017,-1.4056,-1.4081,-1.4127,-1.4184,-1.4193,-1.4252,-1.4295,-1.4367,-1.4395,-1.4443,-1.4433,-1.4451,-1.4456,-1.4461,-1.4464,-1.4356,-1.4452,-1.4452,-1.4452,-1.4452,-1.4452,0,-1.3909,-1.3936,-1.3982,-1.4036,-1.4076,-1.4073,-1.4117,-1.4151,-1.4203,-1.4242,-1.4286,-1.435,-1.4403,-1.4438,-1.4492,-1.4524,-1.4526,-1.4537,-1.4537,-1.4543,-1.4468,-1.4453,-1.4535,-1.4535,-1.4535,-1.4535,-1.4534,-1.4534,-1.3961,-1.4024,-1.4039,-1.4119,-1.4145,-1.4203,-1.4229,-1.4263,-1.4295,-1.4366,-1.441,-1.4432,-1.447,-1.4527,-1.4576,-1.4585,-1.4606,-1.4618,-1.4627,-1.4557,-1.4548,-1.454,-1.4526,-1.4621,-1.4622,-1.4698,-1.4699,-1.4699]}]]